D-STAR ONE PHOENIX (43188 NORAD) Tracking and Keplerian Element Data

This shows tracking and keplerian element data for the satellite.

Feedback or suggestion? Click here.




ElementValue
Catalog43188
NameD-STAR ONE PHOENIX
Epoch Orbit4268
Epoch Day317.73084142
Epoch Year2018
RAAN224.2047
Inclination97.7163
Eccentricity0.0011544
Argument of Perigee18.0831
Mean Anonmoly342.0799
Mean Motion14.96532837
Decay Rate-1.11E-06
L11 43188U 18014J 18317.73084142 -.00000111 00000-0 -46084-5 0 9999
L22 43188 97.7163 224.2047 0011544 18.0831 342.0799 14.96532837 42688

Live tracking and technical data element details for D-STAR ONE PHOENIX (NORAD 43188). D-STAR ONE PHOENIX can be tracked NOW for your location showing map with azimuth and elevation plus other details from your city location.

Track the satellite on the map from your city or location and see movement details for azimuth, elevation, latitude, longitude, range, height, and movement on the map or in text.







IsCatalogInMostPopularTable: catalog: 43188, numindb: 117
Update: records affected: 1



GetName: 43188 D-STAR ONE PHOENIX

Hit Count: updated at: Wed, 14 Nov 2018 11:05:10 GMT